Regional Weather Roundup
Issued by NWS Albany, NY

Home | Current Version | Previous Version | Text Only | Print | Product List | Glossary On
Versions: 1 2 3 4 5 6 7 8 9 10 11 12 13 14 15 16 17 18 19 20 21 22 23 24 25 26 27 28 29 30 31 32 33 34 35 36 37 38 39 40 41 42 43 44 45 46 47 48 49 50
000
ASUS41 KALY 100510
RWRALY

NEW YORK STATE HOURLY WEATHER ROUNDUP
NATIONAL WEATHER SERVICE ALBANY NY
100 AM EDT THU JUL 10 2014

NOTE: "FAIR" INDICATES FEW OR NO CLOUDS BELOW 12,000 FEET WITH NO
SIGNIFICANT WEATHER AND/OR NO OBSTRUCTIONS TO VISIBILITY.

NYZ032-033-038>043-046>054-057>066-NYZ062>081-100600-
EAST


CITY           SKY/WX    TMP DP  RH WIND       PRES   REMARKS
ALBANY         PTCLDY    64  56  75 CALM      30.01R
GLENS FALLS    CLEAR     64  57  78 MISG      29.97R
POUGHKEEPSIE   CLOUDY    69  65  86 NE5       29.97S
MONTGOMERY     MOCLDY    67  64  90 CALM      29.99R
WHITE PLAINS   CLOUDY    70  67  90 NW3       29.97R
NEW YORK CITY  CLOUDY    77  63  61 CALM      29.95S
CENTRAL PARK   CLOUDY    73  65  75 CALM      29.99S
$$

NYZ005>009-017-018-044>046-055-056-100600-
CENTRAL


CITY           SKY/WX    TMP DP  RH WIND       PRES   REMARKS
FULTON         PTCLDY    56  53  90 CALM      30.02R
SYRACUSE       CLOUDY    65  56  72 CALM      30.02R
ROME           PTCLDY    57  55  93 E3        30.03R
ELMIRA         NOT AVBL
BINGHAMTON     NOT AVBL
$$

NYZ026>034-041>043-100600-
NORTH


CITY           SKY/WX    TMP DP  RH WIND       PRES   REMARKS
WATERTOWN      CLEAR     59  52  77 S6        30.00R
FORT DRUM      NOT AVBL
MASSENA        CLEAR     60  56  86 SW9       29.95R
SARANAC LAKE   CLEAR     54  50  86 SW5       29.98R
PLATTSBURGH    PTCLDY    64  54  69 SW6       29.94R
$$

NYZ001>004-010>016-019>021-100600-
WEST


CITY           SKY/WX    TMP DP  RH WIND       PRES   REMARKS
NIAGARA FALLS  CLEAR     59  53  80 CALM      30.04R
BUFFALO        PTCLDY    61  52  72 CALM      30.04R
DUNKIRK        CLEAR     57  55  93 CALM      30.05R
JAMESTOWN      CLEAR     55  52  88 CALM      30.07S
WELLSVILLE     MOCLDY    58  54  86 NW5       30.08S
ROCHESTER      MOCLDY    63  53  70 W3        30.04R
PENN YAN       CLOUDY    62  58  86 SW5       30.05R
$$

             KEY
       WCI = WIND CHILL INDEX
       VSB = VISIBILITY
       HX  = HEAT INDEX
$$


USA.gov is the U.S. government's official web portal to all federal, state and local government web resources and services.